�������l�o���
Date,Time,MP-1(��Sv/h),MP-2(��Sv/h),MP-3(��Sv/h),MP-4(��Sv/h),MP-5(��Sv/h),MP-6(��Sv/h),MP-7(��Sv/h),MP-8(��Sv/h),����,����(m/s),���J
2014/03/23,00:00,2.4,4.3,4.8,4.3,4.5,2.0,2.5,2.7,���쐼,8.5,��
2014/03/23,00:10,2.4,4.3,4.8,4.3,4.5,2.0,2.5,2.7,���쐼,7.7,��
2014/03/23,00:20,2.4,4.3,4.8,4.3,4.5,2.0,2.5,2.7,���쐼,7.4,��
2014/03/23,00:30,2.4,4.3,4.8,4.3,4.5,2.0,2.5,2.7,���쐼,8.2,��
2014/03/23,00:40,2.4,4.3,4.8,4.3,4.5,2.0,2.5,2.7,���쐼,6.9,��
2014/03/23,00:50,2.4,4.3,4.8,4.3,4.5,2.0,2.5,2.7,���쐼,7.1,��
2014/03/23,01:00,2.4,4.3,4.8,4.3,4.5,2.0,2.5,2.7,���쐼,6.0,��
2014/03/23,01:10,2.4,4.3,4.8,4.3,4.5,2.0,2.5,2.7,�쐼,6.3,��
2014/03/23,01:20,2.4,4.3,4.8,4.3,4.5,2.0,2.5,2.7,���쐼,6.3,��
2014/03/23,01:30,2.4,4.3,4.8,4.3,4.5,2.0,2.5,2.7,���쐼,5.8,��
2014/03/23,01:40,2.4,4.3,4.8,4.3,4.5,2.0,2.5,2.7,���쐼,5.6,��
2014/03/23,01:50,2.4,4.3,4.8,4.3,4.5,2.0,2.5,2.7,���쐼,4.8,��
2014/03/23,02:00,2.4,4.3,4.8,4.3,4.5,2.0,2.5,2.7,��,6.0,��
2014/03/23,02:10,2.4,4.3,4.8,4.3,4.5,2.0,2.5,2.7,���쐼,5.1,��
2014/03/23,02:20,2.4,4.3,4.8,4.3,4.5,2.0,2.5,2.7,��,6.3,��
2014/03/23,02:30,2.4,4.3,4.8,4.3,4.5,2.0,2.5,2.7,��,6.1,��
2014/03/23,02:40,2.4,4.3,4.8,4.3,4.5,2.0,2.5,2.7,��,6.1,��
2014/03/23,02:50,2.4,4.3,4.8,4.3,4.5,2.0,2.5,2.7,��,5.3,��
2014/03/23,03:00,2.4,4.3,4.8,4.3,4.5,2.0,2.5,2.7,��,5.0,��
2014/03/23,03:10,2.4,4.3,4.8,4.3,4.5,2.0,2.5,2.7,��,5.1,��
2014/03/23,03:20,2.4,4.3,4.8,4.3,4.5,2.0,2.5,2.7,��,4.9,��
2014/03/23,03:30,2.4,4.3,4.8,4.3,4.5,2.0,2.5,2.7,��,5.1,��
2014/03/23,03:40,2.4,4.3,4.8,4.3,4.5,2.0,2.5,2.7,��,6.3,��
2014/03/23,03:50,2.4,4.3,4.8,4.3,4.5,2.0,2.5,2.7,��,6.6,��
2014/03/23,04:00,2.4,4.3,4.8,4.3,4.5,2.0,2.5,2.7,��,6.2,��
2014/03/23,04:10,2.4,4.3,4.8,4.3,4.5,2.0,2.5,2.7,��,6.3,��
2014/03/23,04:20,2.4,4.3,4.8,4.3,4.5,2.0,2.5,2.7,��,5.7,��
2014/03/23,04:30,2.4,4.3,4.8,4.3,4.5,2.0,2.5,2.7,��,5.2,��
2014/03/23,04:40,2.4,4.3,4.8,4.3,4.5,2.0,2.5,2.7,��,5.6,��
2014/03/23,04:50,2.4,4.3,4.8,4.3,4.5,2.0,2.5,2.7,��,6.4,��
2014/03/23,05:00,2.4,4.3,4.8,4.3,4.5,2.0,2.5,2.7,��,6.9,��
2014/03/23,05:10,2.4,4.3,4.8,4.3,4.5,2.0,2.5,2.7,��,6.5,��
2014/03/23,05:20,2.4,4.3,4.8,4.3,4.5,2.0,2.5,2.7,��,5.5,��
2014/03/23,05:30,2.4,4.3,4.8,4.3,4.5,2.0,2.5,2.7,��,6.0,��
2014/03/23,05:40,2.4,4.3,4.8,4.3,4.5,2.0,2.5,2.7,���쐼,7.4,��
2014/03/23,05:50,2.4,4.3,4.8,4.3,4.5,2.0,2.5,2.7,���쐼,7.2,��
2014/03/23,06:00,2.4,4.3,4.8,4.3,4.5,2.0,2.5,2.7,���쐼,8.0,��
2014/03/23,06:10,2.4,4.3,4.8,4.3,4.5,2.0,2.5,2.7,���쐼,6.6,��
2014/03/23,06:20,2.4,4.3,4.8,4.3,4.5,2.0,2.5,2.7,���쐼,5.1,��
2014/03/23,06:30,2.4,4.3,4.8,4.3,4.5,2.0,2.5,2.7,��,4.2,��
2014/03/23,06:40,2.4,4.3,4.8,4.3,4.5,2.0,2.5,2.7,��,2.4,��
2014/03/23,06:50,2.4,4.3,4.8,4.3,4.5,2.0,2.5,2.7,���쐼,4.3,��
2014/03/23,07:00,2.4,4.3,4.8,4.3,4.5,2.0,2.5,2.7,���쐼,5.2,��
2014/03/23,07:10,2.4,4.3,4.8,4.3,4.5,2.0,2.5,2.7,���쐼,7.4,��
2014/03/23,07:20,2.4,4.3,4.8,4.3,4.5,2.0,2.5,2.7,���쐼,7.9,��
2014/03/23,07:30,2.4,4.3,4.8,4.3,4.5,2.0,2.5,2.7,���쐼,6.9,��
2014/03/23,07:40,2.4,4.3,4.8,4.3,4.5,2.0,2.5,2.7,��,8.8,��
2014/03/23,07:50,2.4,4.3,4.8,4.3,4.5,2.0,2.5,2.7,��,7.7,��
2014/03/23,08:00,2.4,4.3,4.8,4.3,4.5,2.0,2.5,2.7,��,7.1,��
2014/03/23,08:10,2.4,4.3,4.8,4.3,4.5,2.0,2.5,2.7,���쐼,8.9,��
2014/03/23,08:20,2.4,4.3,4.8,4.3,4.5,2.0,2.5,2.7,��,7.8,��
2014/03/23,08:30,2.4,4.3,4.8,4.3,4.5,2.0,2.5,2.7,��,9.9,��
2014/03/23,08:40,2.4,4.3,4.9,4.3,4.5,2.0,2.5,2.7,��,8.0,��
2014/03/23,08:50,2.4,4.3,4.9,4.3,4.5,2.0,2.5,2.7,��,8.6,��
2014/03/23,09:00,2.4,4.3,4.8,4.3,4.5,2.0,2.5,2.7,��,8.2,��
2014/03/23,09:10,2.4,4.3,4.8,4.3,4.5,2.0,2.5,-,��,7.7,��
2014/03/23,09:20,2.4,4.3,4.9,4.4,4.5,2.0,2.5,-,��,7.9,��
2014/03/23,09:30,2.4,4.3,4.9,4.4,4.5,2.0,2.5,-,��,7.7,��
2014/03/23,09:40,2.4,4.3,4.9,4.3,4.5,2.0,2.5,-,��,6.3,��
2014/03/23,09:50,2.4,4.3,4.9,4.3,4.5,2.0,2.5,-,��,4.7,��
2014/03/23,10:00,2.4,4.3,4.9,4.4,4.5,2.0,2.5,-,��,6.1,��
2014/03/23,10:10,2.4,4.3,4.9,4.4,4.5,2.0,2.5,-,��,4.0,��
2014/03/23,10:20,2.4,4.3,4.9,4.3,4.5,2.0,2.5,-,���k��,4.2,��
2014/03/23,10:30,2.4,4.3,4.9,4.4,4.5,2.0,2.5,-,���쐼,5.0,��
2014/03/23,10:40,2.4,4.3,4.9,4.3,4.5,2.0,2.5,-,��,3.8,��
2014/03/23,10:50,2.4,4.3,4.9,4.4,4.5,2.0,2.5,-,��,4.8,��
2014/03/23,11:00,2.4,4.3,4.9,4.4,4.5,2.0,2.5,-,��,5.0,��
2014/03/23,11:10,2.4,4.3,4.9,4.3,4.5,2.0,2.5,-,��,7.1,��
2014/03/23,11:20,2.4,4.3,4.9,4.4,4.5,2.0,2.5,-,��,7.5,��
2014/03/23,11:30,2.4,4.3,4.9,4.4,4.5,2.0,2.5,-,��,5.4,��
2014/03/23,11:40,2.4,4.3,4.9,4.4,4.5,2.0,2.5,-,���쐼,6.7,��
2014/03/23,11:50,2.4,4.3,4.9,4.4,4.5,2.0,2.5,-,��,7.2,��
2014/03/23,12:00,2.4,4.3,4.9,4.4,4.5,2.0,2.5,-,��,5.3,�L
2014/03/23,12:10,2.4,4.3,4.9,4.4,4.5,2.0,2.5,-,��,4.4,��
2014/03/23,12:20,2.4,4.3,4.9,4.4,4.5,2.0,2.5,-,���k��,4.3,��
2014/03/23,12:30,2.4,4.3,4.9,4.4,4.5,2.0,2.5,-,���k��,3.6,�L
2014/03/23,12:40,2.4,4.3,4.9,4.4,4.5,2.0,2.5,-,���k��,3.0,�L
2014/03/23,12:50,2.4,4.3,4.9,4.4,4.5,2.0,2.5,-,�k�k��,1.3,�L
2014/03/23,13:00,2.4,4.3,4.9,4.4,4.5,2.0,2.5,2.7,�k�k��,1.6,�L
2014/03/23,13:10,2.4,4.3,4.9,4.4,4.5,2.0,2.5,2.7,�k��,2.8,�L
2014/03/23,13:20,2.4,4.3,4.9,4.4,4.5,2.0,2.5,2.7,�k�k��,3.3,��
2014/03/23,13:30,2.4,4.3,4.9,4.4,4.5,2.0,2.5,2.7,�k��,3.6,��
2014/03/23,13:40,2.4,4.3,4.9,4.4,4.6,2.0,2.5,2.7,�k��,3.8,��
2014/03/23,13:50,2.4,4.3,4.9,4.4,4.6,2.0,2.5,2.7,�k��,4.3,��
2014/03/23,14:00,2.4,4.3,4.9,4.4,4.5,2.0,2.5,2.7,�k��,4.3,��
2014/03/23,14:10,2.4,4.3,4.9,4.3,4.5,2.0,2.5,2.7,���k��,5.5,��
2014/03/23,14:20,2.4,4.3,4.9,4.4,4.5,2.0,2.5,2.7,�k��,5.7,��
2014/03/23,14:30,2.4,4.3,4.9,4.4,4.5,2.0,2.5,2.7,�k��,5.7,��
2014/03/23,14:40,2.4,4.3,4.9,4.4,4.5,2.0,2.5,2.7,�k��,6.7,��
2014/03/23,14:50,2.4,4.3,4.9,4.4,-,2.0,2.5,2.7,�k�k��,6.7,��
2014/03/23,15:00,2.4,4.3,4.9,4.4,-,2.0,2.5,2.7,�k�k��,6.7,��
2014/03/23,15:10,2.4,4.3,4.9,4.4,-,2.0,2.5,2.7,�k�k��,6.8,��
2014/03/23,15:20,2.4,4.3,4.9,4.4,-,2.0,2.5,2.7,�k�k��,6.2,��
2014/03/23,15:30,2.4,4.3,4.9,4.4,-,2.0,2.5,2.7,�k�k��,5.5,��
2014/03/23,15:40,2.4,4.3,4.9,4.4,-,2.0,2.5,2.7,�k�k��,4.7,��
2014/03/23,15:50,2.4,4.3,4.9,4.4,-,2.0,2.5,2.7,�k�k��,4.9,��
2014/03/23,16:00,2.4,4.3,4.9,4.4,-,2.0,2.5,2.7,�k�k��,4.1,��
2014/03/23,16:10,2.4,4.3,4.9,4.4,-,2.0,2.5,2.7,�k�k��,4.0,��
2014/03/23,16:20,2.4,4.3,4.9,4.4,-,2.0,2.5,2.7,�k�k��,2.5,��
2014/03/23,16:30,2.4,4.3,4.9,4.4,-,2.0,2.5,2.7,�k��,2.3,��
2014/03/23,16:40,2.4,4.3,4.9,4.4,4.5,2.0,2.5,2.7,���k��,0.5,��
2014/03/23,16:50,2.4,4.3,4.9,4.4,4.5,2.0,2.5,2.7,�쓌,1.2,��
2014/03/23,17:00,2.4,4.3,4.9,4.4,4.6,2.0,2.5,2.7,��쓌,1.4,��
2014/03/23,17:10,2.4,4.3,4.9,4.4,4.6,2.0,2.5,2.7,��쓌,2.5,��
2014/03/23,17:20,2.4,4.3,4.9,4.4,4.6,2.0,2.5,2.7,��쓌,2.9,��
2014/03/23,17:30,2.4,4.3,4.9,4.4,4.6,2.0,2.5,2.7,��,3.4,��
2014/03/23,17:40,2.4,4.3,4.9,4.4,4.6,2.0,2.5,2.7,��,3.6,��
2014/03/23,17:50,2.4,4.3,4.9,4.4,4.5,2.0,2.5,2.7,��쓌,1.6,��
2014/03/23,18:00,2.4,4.3,4.9,4.4,4.6,2.0,2.5,2.7,�쐼,2.1,��
2014/03/23,18:10,2.4,4.3,4.9,4.4,4.6,2.0,2.5,2.7,���쐼,2.0,��
2014/03/23,18:20,2.4,4.3,4.9,4.4,4.5,2.0,2.5,2.7,���쐼,3.6,��
2014/03/23,18:30,2.4,4.3,4.9,4.4,4.6,2.0,2.5,2.7,���쐼,5.3,��
2014/03/23,18:40,2.4,4.3,4.9,4.4,4.5,2.0,2.5,2.7,��,5.1,��
2014/03/23,18:50,2.4,4.3,4.9,4.4,4.6,2.0,2.5,2.7,��,5.4,��
2014/03/23,19:00,2.4,4.3,4.9,4.4,4.5,2.0,2.5,2.7,���k��,4.5,��
2014/03/23,19:10,2.4,4.3,4.9,4.3,4.5,2.0,2.5,2.7,���k��,3.3,��
2014/03/23,19:20,2.4,4.3,4.9,4.3,4.5,2.0,2.5,2.7,���k��,2.4,��
2014/03/23,19:30,2.4,4.3,4.9,4.3,4.5,2.0,2.5,2.7,���k��,1.6,��
2014/03/23,19:40,2.4,4.3,4.9,4.3,4.5,2.0,2.5,2.7,���k��,1.3,��
2014/03/23,19:50,2.4,4.3,4.9,4.3,4.5,2.0,2.5,2.7,���쐼,1.1,��
2014/03/23,20:00,2.4,4.3,4.9,4.3,4.5,2.0,2.5,2.7,���쐼,0.9,��
2014/03/23,20:10,2.4,4.3,4.9,4.3,4.5,2.0,2.5,2.7,���쐼,1.4,��
2014/03/23,20:20,2.4,4.3,4.8,4.3,4.5,2.0,2.5,2.7,�쐼,1.4,��
2014/03/23,20:30,2.4,4.3,4.8,4.3,4.5,2.0,2.5,2.7,���k��,0.6,��
2014/03/23,20:40,2.4,4.3,4.8,4.3,4.5,2.0,2.5,2.7,�k�k��,2.2,��
2014/03/23,20:50,2.4,4.3,4.9,4.4,4.5,2.0,2.5,2.7,�k�k��,2.4,��
2014/03/23,21:00,2.4,4.3,4.9,4.3,4.5,2.0,2.5,2.7,�k�k��,2.9,��
2014/03/23,21:10,2.4,4.3,4.9,4.3,4.5,2.0,2.5,2.7,�k�k��,3.4,��
2014/03/23,21:20,2.4,4.3,4.9,4.3,4.5,2.0,2.5,2.7,�k,3.2,��
2014/03/23,21:30,2.4,4.3,4.8,4.3,4.5,2.0,2.5,2.7,�k�k��,2.1,��
2014/03/23,21:40,2.4,4.3,4.8,4.3,4.5,2.0,2.5,2.7,�k��,1.7,��
2014/03/23,21:50,2.4,4.3,4.8,4.3,4.5,2.0,2.5,2.7,���k��,1.3,��
2014/03/23,22:00,2.4,4.3,4.8,4.3,4.5,2.0,2.5,2.7,�k��,1.6,��
2014/03/23,22:10,2.4,4.3,4.8,4.3,4.5,2.0,2.5,2.7,�k,1.3,��
2014/03/23,22:20,2.4,4.3,4.8,4.3,4.5,2.0,2.5,2.7,���k��,1.9,��
2014/03/23,22:30,2.4,4.3,4.8,4.3,4.5,2.0,2.5,2.7,�k��,1.9,��
2014/03/23,22:40,2.4,4.3,4.8,4.3,4.5,2.0,2.5,2.7,�k�k��,1.8,��
2014/03/23,22:50,2.4,4.3,4.8,4.3,4.5,2.0,2.5,2.7,�k��,1.8,��
2014/03/23,23:00,2.4,4.3,4.8,4.3,4.5,2.0,2.5,2.7,�k��,1.2,��
2014/03/23,23:10,2.4,4.3,4.8,4.3,4.5,2.0,2.5,2.7,�k�k��,1.8,��
2014/03/23,23:20,2.4,4.3,4.8,4.3,4.5,2.0,2.5,2.7,�k�k��,1.4,��
2014/03/23,23:30,2.4,4.3,4.8,4.3,4.5,2.0,2.5,2.7,�k�k��,1.8,��
2014/03/23,23:40,2.4,4.3,4.8,4.3,4.5,2.0,2.5,2.7,�k,1.2,��
2014/03/23,23:50,2.4,4.3,4.8,4.3,4.5,2.0,2.5,2.7,�k��,0.7,��
